When you browse on this site, cookies collect data to enhance your experience and personalize the content and advertising you see.
Visit our Privacy Policy to learn more. By continuing to use the site, you agree to this use of cookies and data.
  • In Hungary
  • List of Countries
  • For 7 days
  • Water Temperature
  • Satellite Maps
  • Weather Map
  • News
  • Weather Widgets
  • user-avatar
    Login

    Hourly Weather Hamme

    Today, 22 January, Tuesday

    Time Temperature Precipitation Wind Pressure Humidity
    00:00 -3°C° 0 mm 4 mps 761 mmHg 58%
    01:00 -3°C° 0 mm 4 mps 760 mmHg 56%
    02:00 -4°C° 0 mm 5 mps 759 mmHg 54%
    03:00 -4°C° 0 mm 5 mps 758 mmHg 52%
    04:00 -4°C° 0 mm 6 mps 757 mmHg 51%
    05:00 -4°C° 0 mm 6 mps 756 mmHg 50%
    06:00 -5°C° 0 mm 6 mps 755 mmHg 49%
    07:00 -4°C° 0.1 mm 6 mps 755 mmHg 53%
    08:00 -4°C° 0.1 mm 7 mps 754 mmHg 58%
    09:00 -4°C° 0.1 mm 7 mps 754 mmHg 62%
    10:00 -4°C° 0.6 mm 7 mps 753 mmHg 70%
    11:00 -4°C° 0.6 mm 7 mps 753 mmHg 79%
    12:00 -4°C° 0 mm 7 mps 752 mmHg 89%
    13:00 -4°C° 0.2 mm 6 mps 752 mmHg 89%
    14:00 -4°C° 0.2 mm 6 mps 752 mmHg 88%
    15:00 -2°C° 0.2 mm 5 mps 751 mmHg 88%
    16:00 -2°C° 0 mm 5 mps 751 mmHg 89%
    17:00 -2°C° 0 mm 4 mps 751 mmHg 90%
    18:00 -2°C° 0 mm 4 mps 750 mmHg 90%
    19:00 -2°C° 0 mm 4 mps 750 mmHg 90%
    20:00 -1°C° 0 mm 3 mps 749 mmHg 91%
    21:00 -1°C° 0 mm 3 mps 749 mmHg 91%
    22:00 -1°C° 0 mm 3 mps 748 mmHg 91%
    23:00 -1°C° 0 mm 3 mps 748 mmHg 92%

    Tomorrow, 23 January, Wednesday

    Time Temperature Precipitation Wind Pressure Humidity
    00:00 -2°C° 0 mm 3 mps 747 mmHg 92%
    01:00 -2°C° 0 mm 3 mps 747 mmHg 91%
    02:00 -2°C° 0 mm 3 mps 747 mmHg 91%
    03:00 -3°C° 0 mm 4 mps 746 mmHg 90%
    04:00 -3°C° 0 mm 4 mps 746 mmHg 90%
    05:00 -3°C° 0 mm 4 mps 746 mmHg 89%
    06:00 -3°C° 0 mm 4 mps 746 mmHg 89%
    07:00 -3°C° 0 mm 4 mps 746 mmHg 88%
    08:00 -3°C° 0 mm 4 mps 747 mmHg 87%
    09:00 -3°C° 0 mm 4 mps 747 mmHg 86%
    10:00 -2°C° 0 mm 4 mps 748 mmHg 84%
    11:00 -2°C° 0 mm 4 mps 748 mmHg 83%
    12:00 -1°C° 0 mm 4 mps 749 mmHg 81%
    13:00 0°C° 0 mm 3 mps 749 mmHg 81%
    14:00 -1°C° 0 mm 3 mps 750 mmHg 82%
    15:00 -1°C° 0 mm 3 mps 750 mmHg 83%
    16:00 -1°C° 0 mm 3 mps 751 mmHg 85%
    17:00 -2°C° 0 mm 3 mps 751 mmHg 87%
    18:00 -2°C° 0 mm 2 mps 752 mmHg 89%
    19:00 -2°C° 0 mm 2 mps 752 mmHg 89%
    20:00 -2°C° 0 mm 2 mps 753 mmHg 88%
    21:00 -2°C° 0 mm 2 mps 753 mmHg 87%
    22:00 0°C° 0 mm 1 mps 753 mmHg 88%
    23:00 0°C° 0 mm 1 mps 754 mmHg 89%

    Day after tomorrow, 24 January, Thursday

    Time Temperature Precipitation Wind Pressure Humidity
    00:00 0°C° 0 mm 1 mps 754 mmHg 89%
    01:00 0°C° 0 mm 1 mps 755 mmHg 90%
    02:00 -1°C° 0 mm 0 mps 755 mmHg 91%
    03:00 -2°C° 0 mm 0 mps 755 mmHg 92%
    04:00 -1°C° 0 mm 0 mps 755 mmHg 92%
    05:00 -1°C° 0 mm 0 mps 755 mmHg 92%
    06:00 -1°C° 0 mm 0 mps 755 mmHg 92%
    07:00 -1°C° 0 mm 0 mps 756 mmHg 92%
    08:00 0°C° 0 mm 1 mps 756 mmHg 91%
    09:00 0°C° 0 mm 1 mps 756 mmHg 91%
    10:00 +1°C° 0 mm 1 mps 756 mmHg 88%
    11:00 +2°C° 0 mm 1 mps 756 mmHg 86%
    12:00 +2°C° 0 mm 2 mps 756 mmHg 84%
    13:00 +3°C° 0 mm 1 mps 756 mmHg 86%
    14:00 +3°C° 0 mm 1 mps 756 mmHg 89%
    15:00 +3°C° 0 mm 1 mps 756 mmHg 92%
    16:00 +2°C° 0 mm 1 mps 757 mmHg 92%
    17:00 +1°C° 0 mm 1 mps 757 mmHg 93%
    18:00 +1°C° 0 mm 1 mps 757 mmHg 93%
    19:00 +1°C° 0 mm 1 mps 758 mmHg 93%
    20:00 0°C° 0 mm 1 mps 758 mmHg 93%
    21:00 0°C° 0 mm 1 mps 759 mmHg 93%
    22:00 0°C° 0 mm 1 mps 759 mmHg 92%
    23:00 -1°C° 0 mm 0 mps 759 mmHg 92%

    25 January, Friday

    Time Temperature Precipitation Wind Pressure Humidity
    00:00 -1°C° 0 mm 0 mps 760 mmHg 91%
    01:00 -1°C° 0 mm 0 mps 760 mmHg 91%
    02:00 0°C° 0 mm 1 mps 760 mmHg 91%
    03:00 0°C° 0 mm 1 mps 761 mmHg 91%
    04:00 0°C° 0 mm 1 mps 761 mmHg 90%
    05:00 -2°C° 0 mm 2 mps 762 mmHg 90%
    06:00 -2°C° 0 mm 2 mps 762 mmHg 89%
    07:00 -2°C° 0 mm 2 mps 762 mmHg 84%
    08:00 -4°C° 0 mm 3 mps 763 mmHg 78%
    09:00 -4°C° 0 mm 3 mps 763 mmHg 72%
    10:00 -4°C° 0 mm 3 mps 764 mmHg 69%
    11:00 -2°C° 0 mm 3 mps 764 mmHg 67%
    12:00 -2°C° 0 mm 3 mps 765 mmHg 64%
    13:00 -2°C° 0 mm 3 mps 765 mmHg 65%
    14:00 -2°C° 0 mm 2 mps 765 mmHg 66%
    15:00 -2°C° 0 mm 2 mps 765 mmHg 66%
    16:00 -2°C° 0 mm 2 mps 766 mmHg 70%
    17:00 -3°C° 0 mm 2 mps 766 mmHg 73%
    18:00 -1°C° 0 mm 1 mps 767 mmHg 76%
    19:00 -2°C° 0 mm 1 mps 767 mmHg 76%
    20:00 -2°C° 0 mm 1 mps 768 mmHg 76%
    21:00 -2°C° 0 mm 1 mps 768 mmHg 77%
    22:00 -2°C° 0 mm 1 mps 768 mmHg 77%
    23:00 -2°C° 0 mm 1 mps 768 mmHg 77%

    26 January, Saturday

    Time Temperature Precipitation Wind Pressure Humidity
    00:00 -2°C° 0 mm 1 mps 768 mmHg 76%
    01:00 -2°C° 0 mm 1 mps 767 mmHg 77%
    02:00 -4°C° 0 mm 2 mps 767 mmHg 77%
    03:00 -5°C° 0 mm 2 mps 767 mmHg 77%
    04:00 -5°C° 0 mm 2 mps 767 mmHg 77%
    05:00 -5°C° 0 mm 2 mps 766 mmHg 77%
    06:00 -5°C° 0 mm 2 mps 766 mmHg 78%
    07:00 -6°C° 0 mm 3 mps 766 mmHg 75%
    08:00 -5°C° 0 mm 3 mps 766 mmHg 72%
    09:00 -5°C° 0 mm 4 mps 765 mmHg 69%
    10:00 -4°C° 0 mm 4 mps 764 mmHg 66%
    11:00 -4°C° 0 mm 5 mps 764 mmHg 63%
    12:00 -2°C° 0 mm 5 mps 763 mmHg 60%
    13:00 -2°C° 0 mm 5 mps 762 mmHg 61%
    14:00 -2°C° 0 mm 5 mps 761 mmHg 61%
    15:00 -3°C° 0 mm 6 mps 760 mmHg 62%
    16:00 -3°C° 0 mm 6 mps 759 mmHg 66%
    17:00 -3°C° 0 mm 6 mps 758 mmHg 71%
    18:00 -3°C° 0 mm 7 mps 758 mmHg 75%
    19:00 -3°C° 0.2 mm 7 mps 757 mmHg 79%
    20:00 -4°C° 0.2 mm 8 mps 756 mmHg 83%
    21:00 -2°C° 0.2 mm 8 mps 755 mmHg 87%
    22:00 -2°C° 0.2 mm 8 mps 754 mmHg 89%
    23:00 -1°C° 0.2 mm 8 mps 754 mmHg 90%

    27 January, Sunday

    Time Temperature Precipitation Wind Pressure Humidity
    00:00 -1°C° 0.2 mm 8 mps 753 mmHg 92%
    01:00 -1°C° 0.1 mm 7 mps 753 mmHg 91%
    02:00 -1°C° 0.1 mm 6 mps 752 mmHg 89%
    03:00 +1°C° 0.1 mm 5 mps 752 mmHg 87%
    04:00 +1°C° 0.6 mm 5 mps 752 mmHg 88%
    05:00 +1°C° 0.6 mm 5 mps 752 mmHg 89%
    06:00 +1°C° 0.6 mm 5 mps 752 mmHg 89%
    07:00 +1°C° 0.2 mm 5 mps 752 mmHg 86%
    08:00 +1°C° 0.2 mm 6 mps 753 mmHg 82%
    09:00 +1°C° 0.2 mm 6 mps 753 mmHg 79%
    10:00 +1°C° 0.1 mm 6 mps 754 mmHg 77%
    11:00 +1°C° 0.1 mm 6 mps 754 mmHg 75%
    12:00 +1°C° 0.1 mm 6 mps 754 mmHg 74%
    13:00 +1°C° 0 mm 6 mps 754 mmHg 74%
    14:00 +1°C° 0 mm 6 mps 754 mmHg 75%
    15:00 +1°C° 0 mm 6 mps 754 mmHg 75%
    16:00 +1°C° 1.2 mm 6 mps 754 mmHg 78%
    17:00 +1°C° 1.2 mm 6 mps 755 mmHg 80%
    18:00 +1°C° 1.2 mm 5 mps 755 mmHg 82%
    19:00 +1°C° 0.1 mm 5 mps 755 mmHg 82%
    20:00 +1°C° 0.1 mm 5 mps 755 mmHg 81%
    21:00 +1°C° 0.1 mm 5 mps 755 mmHg 80%
    22:00 +1°C° 0 mm 5 mps 755 mmHg 79%
    23:00 0°C° 0 mm 5 mps 756 mmHg 78%
    Show more